Date,TemperatureHighF,TemperatureAvgF,TemperatureLowF,DewpointHighF,DewpointAvgF,DewpointLowF,HumidityHigh,HumidityAvg,HumidityLow,PressureMaxIn,PressureMinIn,WindSpeedMaxMPH,WindSpeedAvgMPH,GustSpeedMaxMPH,PrecipitationSumIn
2014-1-1,46.2,42.5,38.7,43.3,40.8,37.9,98,94,85,30.44,30.28,9,1,13,0.00
2014-1-2,45.7,43.1,40.3,44.4,41.9,36.7,98,95,86,30.27,29.84,19,3,21,1.24
2014-1-3,42.8,39.1,32.4,39.0,35.6,30.6,96,87,80,30.40,29.95,15,3,18,0.01
2014-1-4,43.3,36.1,30.9,34.7,31.8,29.5,97,85,67,30.51,30.40,12,2,13,0.01
2014-1-5,45.9,39.5,32.5,33.4,30.6,28.6,85,71,55,30.55,30.37,17,4,19,0.00
2014-1-6,43.9,37.8,33.4,33.1,30.1,27.9,86,74,62,30.37,30.14,18,4,21,0.00
2014-1-7,40.1,37.7,34.2,38.5,35.5,30.4,97,92,83,30.17,30.01,13,1,15,0.17
2014-1-8,45.7,40.6,38.1,42.4,39.7,37.4,98,96,85,30.03,29.63,20,2,25,0.46
2014-1-9,45.9,42.1,37.9,42.6,38.9,34.7,98,89,68,29.97,29.69,19,3,21,0.47
2014-1-10,48.6,44.6,39.9,42.8,41.4,39.2,97,89,75,30.04,29.44,19,5,26,0.74
2014-1-11,51.6,44.7,39.9,48.7,41.3,38.5,98,88,75,29.72,29.22,29,6,33,0.78
2014-1-12,49.5,44.2,38.8,45.9,40.9,35.8,95,88,78,30.20,29.73,17,5,23,0.20
2014-1-13,52.9,50.6,48.7,47.5,45.8,43.9,87,84,81,30.59,30.20,22,6,25,0.00
2014-1-14,51.1,49.1,46.6,46.2,45.2,43.5,91,86,80,30.67,30.58,13,5,15,0.00
2014-1-15,52.5,45.6,40.8,46.0,42.0,38.5,93,88,74,30.64,30.54,11,2,15,0.00
2014-1-16,53.6,41.9,35.4,42.8,38.1,34.2,97,87,64,30.54,30.40,10,2,17,0.00
2014-1-17,55.4,41.9,35.1,43.2,37.1,33.4,96,84,59,30.39,30.19,22,3,22,0.00
2014-1-18,46.2,36.0,28.8,39.4,33.6,27.5,98,91,73,30.29,30.18,18,3,18,0.00
2014-1-19,45.1,37.8,34.7,39.9,36.2,34.0,97,94,82,30.36,30.21,12,2,13,0.00
2014-1-20,52.5,39.6,31.1,39.4,34.4,30.0,98,83,60,30.38,30.31,15,4,18,0.02
2014-1-21,47.8,41.4,34.3,36.5,33.0,30.0,87,72,59,30.36,30.24,24,3,24,0.00
2014-1-22,48.4,39.9,36.1,38.8,35.1,32.7,90,83,67,30.49,30.35,9,1,11,0.00
2014-1-23,56.1,43.3,34.3,40.6,35.7,31.8,93,76,53,30.50,30.43,13,3,20,0.00
2014-1-24,61.3,49.1,42.1,41.9,37.3,33.8,80,65,45,30.47,30.32,19,3,19,0.00
2014-1-25,57.7,45.3,38.3,45.9,37.7,34.3,88,76,56,30.40,30.30,9,2,11,0.00
2014-1-26,56.1,42.4,34.2,43.2,36.0,32.2,93,79,55,30.30,30.12,14,2,18,0.00
2014-1-27,50.4,45.3,42.3,34.9,31.9,30.2,71,59,48,30.24,30.13,29,6,29,0.00
2014-1-28,43.5,41.1,39.6,40.6,37.3,30.9,97,87,62,30.25,29.93,13,1,18,0.03
2014-1-29,45.1,42.0,39.9,42.6,40.0,38.3,97,93,82,29.93,29.68,17,2,17,0.18
2014-1-30,41.5,37.6,34.3,39.2,33.6,23.0,97,86,63,29.98,29.79,27,6,30,0.21
2014-1-31,43.0,34.9,30.2,23.9,21.4,19.0,70,58,45,30.20,29.98,22,6,27,0.00
2014-2-1,36.1,31.8,29.1,31.5,24.2,20.3,87,73,67,30.23,30.13,12,1,18,0.00
2014-2-2,37.0,33.2,28.9,27.0,20.3,13.6,80,60,47,30.13,30.02,23,5,23,0.00
2014-2-3,37.0,30.5,25.7,13.6,10.7,4.6,53,44,33,30.31,30.11,26,8,32,0.00
2014-2-4,28.6,24.6,22.1,6.3,4.2,2.5,46,41,35,30.53,30.31,39,12,40,0.00
2014-2-5,28.6,23.7,20.8,4.3,1.1,-1.7,47,37,29,30.57,30.40,32,11,43,0.00
2014-2-6,30.9,24.3,17.4,5.9,0.9,-2.0,45,36,27,30.40,29.84,25,8,30,0.00
2014-2-7,35.1,27.1,22.8,12.7,9.3,5.7,59,47,37,30.00,29.84,28,7,32,0.00
2014-2-8,35.2,28.7,22.3,10.9,7.4,5.0,48,41,31,30.12,29.90,30,10,40,0.00
2014-2-9,33.6,30.5,27.7,20.5,13.1,8.2,59,48,39,30.14,29.98,22,4,26,0.00
2014-2-10,45.1,36.5,30.6,41.7,32.3,18.3,97,85,57,30.11,29.94,18,4,23,0.71
2014-2-11,48.6,44.2,39.4,39.6,37.5,34.3,93,77,64,30.15,29.65,15,4,16,0.09
2014-2-12,52.0,45.9,41.2,40.1,38.1,36.3,93,75,60,29.87,29.69,12,4,19,0.07
2014-2-13,52.9,45.8,40.5,41.7,38.8,34.3,94,77,60,30.06,29.67,22,4,26,0.06
2014-2-14,55.4,45.4,38.5,45.0,38.9,33.4,95,79,60,29.97,29.54,21,4,29,0.21
2014-2-15,47.3,41.7,39.0,43.5,37.4,33.8,93,85,69,29.96,29.20,28,6,31,0.35
2014-2-16,45.1,41.6,38.3,38.7,34.6,31.5,88,76,59,29.92,29.54,21,5,25,0.07
2014-2-17,47.7,41.8,39.4,41.0,37.7,34.5,93,86,74,29.90,29.66,15,4,23,0.26
2014-2-18,47.3,40.2,36.0,43.2,35.9,32.5,95,85,76,29.92,29.48,19,5,25,0.20
2014-2-19,47.5,40.5,36.3,34.9,33.2,30.0,90,75,55,30.10,29.80,16,4,18,0.05
2014-2-20,50.4,43.0,35.1,38.8,35.6,32.9,96,76,55,30.16,29.94,19,6,28,0.06
2014-2-21,46.9,39.6,34.5,35.8,29.3,24.6,84,67,47,30.30,30.16,13,4,18,0.00
2014-2-22,37.6,32.9,32.2,36.5,31.9,31.1,97,97,95,30.13,30.08,0,0,1,0.02
2014-2-23,32.4,28.9,26.4,31.6,27.9,25.2,97,96,93,30.14,30.02,31,7,37,0.01
2014-2-24,32.4,28.8,27.0,29.3,26.8,24.1,97,92,85,30.20,30.13,36,13,42,0.00
2014-2-25,44.8,37.2,30.6,28.2,24.9,21.4,85,62,44,30.23,30.06,32,11,38,0.10
2014-2-26,51.4,42.0,36.7,31.8,27.2,22.8,71,56,44,30.06,29.76,24,7,29,0.00
2014-2-27,51.8,43.2,37.2,39.9,34.7,31.3,91,73,50,29.79,29.67,15,2,17,0.02
2014-2-28,52.3,45.3,38.8,38.5,24.1,11.7,88,47,25,29.79,29.60,38,10,50,0.00
2014-3-1,38.8,31.5,27.3,21.9,16.3,10.4,78,55,33,29.76,29.63,34,13,46,0.00
2014-3-2,32.2,28.5,26.2,31.1,26.3,19.6,96,91,67,29.75,29.58,33,8,36,0.27
2014-3-3,45.7,41.0,33.3,42.8,39.4,32.7,98,94,86,29.90,29.66,14,3,15,0.71
2014-3-4,41.4,37.7,34.9,39.2,36.3,34.2,98,95,88,29.97,29.86,11,2,15,0.49
2014-3-5,46.9,41.0,35.4,44.1,39.8,35.1,98,96,88,29.86,29.41,16,3,22,0.50
2014-3-6,47.7,45.0,41.2,46.2,43.7,40.1,98,95,91,30.04,29.42,13,3,16,0.77
2014-3-7,57.2,50.0,44.4,48.2,45.4,42.1,94,85,70,30.27,30.04,13,4,15,0.01
2014-3-8,45.7,44.1,42.4,44.6,42.0,39.0,98,93,83,30.15,29.72,17,3,19,0.85
2014-3-9,58.8,51.0,43.9,47.5,44.7,41.9,98,80,57,30.03,29.77,11,3,12,0.09
2014-3-10,54.9,45.7,41.4,43.0,40.2,37.0,94,82,54,30.44,29.97,15,2,15,0.00
2014-3-11,61.3,47.3,37.8,43.5,38.0,34.5,96,73,41,30.61,30.44,12,3,12,0.00
2014-3-12,63.9,48.9,37.6,42.1,37.1,30.7,88,66,32,30.48,30.17,13,3,19,0.00
2014-3-13,61.5,48.7,40.1,42.8,40.1,37.2,94,74,46,30.20,29.98,13,3,15,0.00
2014-3-14,56.7,48.5,43.7,48.0,42.7,37.0,97,81,56,30.34,29.86,18,4,18,0.57
2014-3-15,50.2,45.9,43.0,48.6,41.6,36.7,97,85,70,30.35,30.11,21,4,21,0.92
2014-3-16,48.9,44.7,40.6,47.5,42.5,38.5,95,92,85,30.22,29.96,9,2,13,0.51
2014-3-17,50.7,42.3,36.1,38.7,32.5,26.6,93,70,40,30.34,29.97,18,4,23,0.01
2014-3-18,52.3,42.1,34.3,40.6,36.0,29.8,92,80,60,30.36,30.17,10,2,11,0.04
2014-3-19,50.2,43.6,40.5,44.8,39.4,32.5,97,86,57,30.18,29.99,19,4,22,0.97
2014-3-20,52.5,43.3,37.9,36.5,32.2,27.5,82,67,40,30.38,30.17,14,4,16,0.00
2014-3-21,55.2,42.5,32.4,38.8,31.8,25.5,92,68,34,30.39,30.32,14,3,14,0.00
2014-3-22,42.1,38.5,35.8,40.5,33.6,28.9,97,83,66,30.36,30.28,12,2,15,0.19
2014-3-23,57.9,44.0,33.4,40.5,36.1,32.0,97,76,47,30.38,30.30,12,2,12,0.00
2014-3-24,61.2,50.4,41.7,37.0,34.6,32.7,79,56,37,30.30,29.89,23,7,25,0.00
2014-3-25,54.0,48.2,44.2,45.7,42.2,36.0,92,80,57,29.90,29.49,24,5,24,0.19
2014-3-26,61.9,48.8,43.5,45.1,42.2,39.6,95,79,49,29.61,29.53,12,3,16,0.34
2014-3-27,54.9,47.1,41.7,46.8,41.7,37.8,97,82,63,29.87,29.58,15,2,16,0.20
2014-3-28,47.8,45.4,43.0,45.9,42.7,40.5,96,90,81,29.88,29.64,22,4,23,0.54
2014-3-29,54.0,47.2,44.1,45.3,43.0,40.3,94,86,65,29.78,29.68,14,2,15,0.13
2014-3-30,52.5,46.0,41.4,43.3,40.4,38.1,94,81,60,30.00,29.78,12,2,15,0.17
2014-3-31,62.1,47.7,45.9,39.7,38.5,32.0,79,72,35,30.00,29.77,24,1,30,0.00
2014-4-1,66.7,49.6,43.9,39.7,36.1,29.8,79,62,29,30.00,29.78,24,3,27,0.00
2014-4-2,60.4,48.2,40.3,43.2,38.1,31.6,84,69,37,30.01,29.88,14,2,18,0.00
2014-4-3,51.6,46.0,42.3,43.2,39.0,34.9,95,77,61,30.00,29.86,14,1,20,0.05
2014-4-4,57.0,47.7,43.7,43.0,40.2,34.5,90,76,47,30.00,29.88,13,2,16,0.07
2014-4-5,53.2,46.7,43.0,51.1,42.4,39.7,96,85,77,30.06,29.95,12,1,12,0.40
2014-4-6,61.2,49.0,45.1,45.9,41.7,39.7,92,77,53,30.30,30.00,10,2,13,0.06
2014-4-7,70.5,51.9,45.9,52.5,44.6,39.7,96,77,51,30.31,30.00,11,1,13,0.09
2014-4-8,57.4,50.0,45.9,53.4,45.0,39.6,95,83,72,30.14,30.00,15,3,19,0.16
2014-4-9,59.5,48.6,43.2,41.4,37.6,26.2,80,68,31,30.27,30.00,13,2,16,0.01
2014-4-10,61.5,47.6,38.8,41.9,38.5,34.2,85,72,43,30.30,30.00,11,2,13,0.00
2014-4-11,60.6,49.2,45.7,46.9,41.6,37.6,84,75,58,30.18,30.00,13,2,16,0.00
2014-4-12,67.5,51.2,45.7,48.6,40.4,32.7,91,69,32,30.22,30.00,19,2,20,0.00
2014-4-13,72.3,57.4,45.9,39.7,31.3,20.7,79,40,15,30.35,30.00,19,4,21,0.83
2014-4-14,70.2,56.9,46.6,40.1,34.1,27.9,62,43,26,30.20,30.02,15,5,17,0.00
2014-4-15,57.0,51.0,45.9,45.1,39.8,36.1,93,66,47,30.17,30.07,14,4,16,0.05
2014-4-16,52.5,48.3,44.8,50.7,46.5,43.3,97,93,87,30.07,29.91,6,1,8,0.63
2014-4-17,54.5,49.2,43.3,51.3,47.0,41.9,97,92,82,29.91,29.70,15,2,20,0.81
2014-4-18,58.8,49.0,42.6,43.0,39.1,33.6,96,71,40,30.11,29.86,16,4,16,0.05
2014-4-19,54.7,47.9,43.3,47.7,40.3,35.1,91,75,57,30.15,29.78,19,4,19,0.13
2014-4-20,61.2,51.7,44.2,46.6,41.3,38.8,84,68,49,30.31,30.15,10,2,12,0.00
2014-4-21,63.1,52.1,45.3,47.1,42.8,38.8,93,72,48,30.15,29.83,13,3,16,0.04
2014-4-22,57.9,48.7,44.2,45.0,40.2,31.5,96,75,40,29.87,29.80,17,4,18,0.32
2014-4-23,60.4,49.3,40.8,46.6,42.6,39.2,96,79,53,29.90,29.68,9,1,11,0.36
2014-4-24,51.4,45.9,41.9,49.8,43.7,40.1,97,92,86,29.91,29.59,22,3,25,1.29
2014-4-25,63.7,50.4,41.5,46.6,40.5,34.9,97,72,40,29.92,29.83,10,2,12,0.01
2014-4-26,60.4,49.1,38.3,43.9,39.1,32.5,92,70,39,29.83,29.62,16,2,19,0.00
2014-4-27,56.7,48.4,44.2,47.5,40.2,37.6,90,74,50,30.09,29.62,19,4,21,0.06
2014-4-28,63.9,51.8,42.6,43.3,40.0,37.4,92,66,40,30.41,30.09,11,2,13,0.01
2014-4-29,75.6,59.5,46.6,46.4,40.8,36.9,73,53,29,30.54,30.41,13,3,18,0.00
2014-4-30,84.0,68.0,54.1,54.5,46.1,40.3,62,47,30,30.45,30.19,16,3,18,0.00
2014-5-1,90.3,73.2,60.1,52.9,45.2,36.7,61,38,24,30.19,29.94,21,4,21,0.00
2014-5-2,76.1,63.8,54.0,53.4,49.6,44.6,93,62,40,30.01,29.85,15,4,18,0.20
2014-5-3,58.5,52.2,47.3,53.1,48.0,43.7,94,86,70,29.89,29.74,15,2,16,0.31
2014-5-4,51.4,48.6,46.4,49.3,47.0,45.3,97,94,90,29.87,29.74,15,3,18,0.78
2014-5-5,60.6,51.6,45.7,51.4,47.5,44.6,97,86,67,30.02,29.86,13,2,13,0.26
2014-5-6,65.1,55.4,47.5,50.4,47.7,44.2,96,77,56,30.03,29.99,13,3,14,0.02
2014-5-7,72.3,57.5,46.2,48.7,45.6,43.3,91,67,40,30.05,29.87,10,3,12,0.00
2014-5-8,69.6,53.4,46.2,50.9,47.3,42.4,96,81,46,29.88,29.64,20,2,20,0.58
2014-5-9,61.2,52.6,47.3,49.5,44.3,41.0,96,75,49,30.00,29.67,15,4,17,0.14
2014-5-10,58.5,50.7,45.3,49.8,46.3,41.9,96,85,68,30.29,30.00,8,1,10,0.09
2014-5-11,73.0,59.7,49.1,53.4,48.8,46.4,92,70,44,30.36,30.27,14,2,14,0.00
2014-5-12,80.4,64.0,48.4,52.9,46.9,42.4,90,58,30,30.39,30.30,11,2,16,0.00
2014-5-13,83.8,68.3,57.0,52.5,48.4,41.9,73,52,27,30.40,30.32,9,2,11,0.00
2014-5-14,85.6,70.5,57.0,58.8,52.4,46.9,75,55,29,30.34,30.14,13,2,13,0.00
2014-5-15,85.3,72.3,62.2,57.6,51.8,48.6,75,50,33,30.14,29.91,15,3,24,0.00
2014-5-16,71.6,63.1,54.7,54.9,50.1,47.8,80,63,46,30.09,29.98,14,4,17,0.00
2014-5-17,67.8,59.1,53.8,51.1,48.2,45.1,80,68,47,30.07,29.87,9,3,11,0.00
2014-5-18,70.5,60.3,51.8,54.0,48.9,45.3,90,68,45,29.88,29.80,17,2,17,0.00
2014-5-19,69.3,60.6,53.2,53.8,50.4,47.3,83,70,52,30.07,29.88,9,2,11,0.00
2014-5-20,75.6,63.9,55.2,54.9,51.1,46.4,86,65,38,30.12,30.07,12,3,13,0.00
2014-5-21,71.1,61.2,50.7,51.8,48.3,43.7,86,64,42,30.17,30.11,10,4,14,0.00
2014-5-22,80.4,65.4,50.5,56.5,52.7,48.0,92,66,40,30.15,30.01,11,2,12,0.00
2014-5-23,68.4,60.2,53.4,59.7,55.5,48.9,98,85,67,30.10,29.95,13,3,15,0.89
2014-5-24,68.0,57.9,49.5,53.2,48.9,46.0,94,73,49,30.19,30.10,14,4,15,0.00
2014-5-25,55.8,53.0,49.8,53.4,50.1,46.4,96,90,81,30.14,30.00,7,1,8,0.33
2014-5-26,62.2,54.6,50.2,53.8,50.0,45.7,97,85,63,30.19,30.00,10,1,13,0.20
2014-5-27,67.8,57.5,45.1,52.9,47.1,42.3,96,70,45,30.18,30.08,14,3,14,0.00
2014-5-28,61.2,52.0,46.8,53.8,48.6,43.2,96,88,75,30.11,30.05,7,1,8,0.23
2014-5-29,62.1,54.0,48.7,52.7,48.4,46.4,95,82,61,30.24,30.11,9,2,13,0.27
2014-5-30,76.5,61.0,45.3,53.6,49.4,43.9,96,69,42,30.20,30.00,10,2,12,0.00
2014-5-31,76.8,63.5,48.9,57.0,50.6,46.4,93,65,43,30.08,30.02,11,3,13,0.00
2014-6-1,74.7,63.3,50.5,55.9,52.2,47.1,90,69,47,30.10,29.98,12,3,13,0.00
2014-6-2,79.5,65.6,51.1,60.3,53.7,47.1,96,68,44,29.99,29.83,12,3,14,0.00
2014-6-3,70.3,61.1,53.2,54.5,52.0,49.1,87,73,53,30.09,29.86,14,4,14,0.00
2014-6-4,68.4,60.6,53.2,54.3,52.3,49.8,90,75,57,30.13,30.09,13,4,15,0.00
2014-6-5,75.9,63.0,47.7,52.3,47.8,41.7,93,61,34,30.16,30.08,11,3,12,0.00
2014-6-6,78.1,64.0,49.1,53.6,48.0,43.2,85,59,32,30.15,30.07,12,3,12,0.00
2014-6-7,77.2,63.8,51.1,56.1,50.7,46.2,89,65,40,30.18,30.10,14,3,16,0.00
2014-6-8,79.2,65.3,53.8,57.9,53.2,50.2,91,67,41,30.20,30.04,15,4,16,0.00
2014-6-9,73.0,63.9,55.2,54.0,48.3,43.3,83,59,37,30.15,30.06,14,4,16,0.00
2014-6-10,63.3,56.1,50.7,54.7,50.6,46.8,95,82,63,30.12,30.05,14,3,15,0.30
2014-6-11,77.4,63.5,47.8,55.6,51.5,46.4,96,68,40,30.11,29.83,15,2,15,0.00
2014-6-12,73.8,63.2,56.5,58.8,53.2,49.8,90,71,48,29.84,29.78,14,3,14,0.01
2014-6-13,61.2,56.3,52.3,56.1,52.0,48.4,96,86,72,30.08,29.82,12,2,16,0.40
2014-6-14,57.4,54.5,51.4,52.9,50.1,47.7,92,85,77,30.11,29.98,9,3,12,0.04
2014-6-15,66.4,56.6,51.4,55.4,49.5,43.9,91,78,54,29.98,29.82,15,2,18,0.09
2014-6-16,63.0,54.8,49.6,55.0,49.3,43.9,94,82,67,29.97,29.83,12,2,14,0.09
2014-6-17,68.2,59.6,51.4,53.8,51.6,49.8,95,76,57,30.10,29.97,14,2,15,0.01
2014-6-18,64.8,57.9,53.6,54.0,51.0,48.6,87,78,66,30.11,30.04,11,3,13,0.00
2014-6-19,73.9,64.0,54.0,58.3,54.8,50.5,93,74,52,30.04,29.93,15,2,18,0.12
2014-6-20,67.8,58.9,49.6,56.3,46.8,42.1,95,67,41,30.18,29.98,14,3,17,0.20
2014-6-21,77.5,62.6,46.4,53.1,46.2,42.4,89,59,34,30.17,30.05,12,3,16,0.00
2014-6-22,81.3,66.0,49.3,55.9,50.4,44.2,89,60,36,30.12,30.00,10,3,13,0.00
2014-6-23,80.4,68.0,57.7,58.3,53.4,50.5,80,62,38,30.01,29.98,10,2,13,0.00
2014-6-24,76.8,69.5,61.5,59.9,57.4,55.2,83,66,51,30.10,30.05,7,3,9,0.00
2014-6-25,85.3,70.5,55.6,60.8,56.3,52.9,94,64,38,30.05,29.76,11,2,13,0.00
2014-6-26,80.6,68.7,56.5,60.3,55.8,51.8,86,65,42,29.78,29.73,13,4,20,0.00
2014-6-27,70.9,60.5,55.8,61.9,54.5,49.5,95,81,66,29.87,29.73,17,3,19,0.77
2014-6-28,74.1,61.7,54.7,60.1,56.1,52.9,97,83,57,30.02,29.87,12,2,14,0.16
2014-6-29,68.4,59.4,53.8,56.7,53.5,51.1,94,81,62,30.25,30.02,8,2,9,0.02
2014-6-30,84.4,67.9,51.1,60.3,55.9,49.6,97,69,41,30.27,30.04,9,2,13,0.00
2014-7-1,97.2,78.0,60.4,68.4,59.1,52.9,85,56,29,30.05,29.75,13,2,15,0.00
2014-7-2,85.8,72.8,62.8,63.0,57.3,51.6,77,60,35,29.98,29.75,15,4,18,0.00
2014-7-3,72.0,64.5,57.9,54.5,52.1,49.8,82,65,48,30.10,29.97,13,4,16,0.00
2014-7-4,78.8,64.6,55.6,56.1,52.6,49.6,84,67,41,30.07,30.01,14,2,14,0.01
2014-7-5,73.9,64.2,57.2,59.4,54.9,49.6,86,73,54,30.17,30.05,14,2,15,0.00
2014-7-6,75.2,66.0,59.7,65.1,59.9,55.0,95,81,58,30.21,30.12,13,2,15,0.03
2014-7-7,85.5,73.4,60.4,66.4,62.2,59.0,97,70,49,30.16,30.03,11,2,16,0.01
2014-7-8,87.3,73.4,59.2,66.4,60.7,54.0,95,67,42,30.07,29.96,10,2,13,0.00
2014-7-9,81.0,69.7,59.5,61.0,55.6,50.7,89,63,37,30.03,29.93,13,3,21,0.00
2014-7-10,87.1,71.4,55.0,62.6,56.0,51.1,88,61,36,29.98,29.88,9,2,12,0.00
2014-7-11,93.6,75.8,57.9,65.3,59.4,53.6,91,60,35,30.00,29.93,10,2,13,0.00
2014-7-12,91.0,76.2,62.2,65.3,60.6,55.6,86,61,39,30.08,30.00,12,2,12,0.00
2014-7-13,98.4,79.4,62.1,69.3,62.9,57.0,91,60,34,30.13,29.98,16,2,19,0.00
2014-7-14,89.4,76.9,66.4,63.7,59.8,55.9,76,57,40,30.10,30.01,19,4,19,0.00
2014-7-15,90.1,74.2,59.7,64.2,59.6,55.6,89,63,41,30.11,29.98,9,2,11,0.00
2014-7-16,88.5,74.0,59.5,65.1,59.9,56.3,90,64,42,30.02,29.90,12,3,12,0.00
2014-7-17,79.9,69.6,61.0,58.8,55.7,50.5,81,63,41,30.00,29.91,14,4,15,0.00
2014-7-18,80.6,69.1,57.7,59.9,55.6,51.6,86,64,39,30.08,29.99,12,4,14,0.00
2014-7-19,67.6,65.2,62.1,59.5,58.9,57.4,87,80,73,30.02,29.94,18,6,23,0.00
2014-7-20,67.3,64.1,54.7,59.2,57.2,49.3,82,78,57,29.97,29.94,9,5,16,0.02
2014-7-21,77.4,64.4,52.5,55.6,52.1,48.9,89,67,41,30.06,29.97,9,2,12,0.00
2014-7-22,75.9,63.7,53.1,59.5,55.7,50.2,93,76,52,30.08,30.01,8,1,10,0.00
2014-7-23,63.1,60.3,53.2,60.8,58.3,52.0,96,93,87,30.06,29.94,15,1,15,0.99
2014-7-24,63.7,58.0,53.1,57.7,53.6,51.3,96,86,69,30.20,30.03,14,3,16,0.28
2014-7-25,77.0,64.5,51.6,57.4,53.7,49.5,94,70,48,30.20,30.09,10,3,13,0.00
2014-7-26,83.8,67.2,52.9,60.3,55.1,50.4,93,68,41,30.18,30.11,9,2,11,0.00
2014-7-27,89.6,71.3,55.6,63.9,58.2,53.2,94,66,34,30.21,30.08,10,2,11,0.00
2014-7-28,91.8,74.6,58.6,64.9,59.0,53.8,93,61,37,30.13,30.05,10,2,12,0.00
2014-7-29,89.2,73.9,58.5,65.3,59.8,55.2,90,64,40,30.14,30.04,9,2,14,0.00
2014-7-30,86.2,72.2,57.9,62.1,59.2,55.0,90,66,42,30.15,30.07,10,3,13,0.00
2014-7-31,90.7,74.1,58.1,64.6,60.0,55.4,92,64,36,30.14,30.01,10,2,12,0.00
2014-8-1,89.8,73.3,59.5,66.0,60.2,55.8,91,65,44,30.07,29.95,9,2,11,0.00
2014-8-2,90.5,74.8,60.4,67.8,61.1,56.7,88,65,40,30.01,29.92,10,3,12,0.00
2014-8-3,91.8,75.4,60.1,66.6,61.1,56.5,89,64,39,30.07,29.92,10,2,11,0.00
2014-8-4,90.1,75.4,62.1,65.3,60.8,55.6,87,63,41,30.00,29.90,11,2,11,0.00
2014-8-5,82.0,70.0,57.4,61.3,57.8,53.1,87,67,45,30.06,29.93,15,4,15,0.00
2014-8-6,82.4,69.5,58.5,61.9,58.2,55.0,91,70,47,30.13,30.05,13,4,14,0.00
2014-8-7,81.0,69.1,56.7,60.4,55.2,46.8,91,64,42,30.09,30.01,12,3,13,0.00
2014-8-8,78.1,66.6,55.0,58.6,53.8,49.1,86,65,46,30.11,30.02,16,4,16,0.00
2014-8-9,83.1,68.7,54.0,59.4,55.0,50.5,92,64,41,30.17,30.10,11,2,14,0.00
2014-8-10,93.9,75.0,58.5,65.1,59.5,52.7,87,62,35,30.16,29.98,11,2,11,0.00
2014-8-11,100.9,79.7,61.5,71.1,62.7,56.3,89,61,28,30.01,29.80,11,2,13,0.00
2014-8-12,83.1,73.5,67.8,67.6,63.8,57.0,91,72,52,29.90,29.80,15,2,20,0.04
2014-8-13,70.5,65.5,61.3,63.7,62.2,59.7,96,89,78,30.02,29.84,12,4,16,0.54
2014-8-14,73.9,64.6,59.5,65.1,61.7,58.3,98,91,71,30.05,29.97,12,2,12,0.20
2014-8-15,75.4,67.1,62.1,64.9,62.4,59.5,98,85,67,30.08,29.99,11,3,12,0.00
2014-8-16,65.3,64.3,62.2,60.6,60.2,59.2,93,87,84,30.13,30.06,11,2,11,0.00
2014-8-17,65.3,65.3,65.3,60.3,60.3,60.3,84,84,84,30.13,30.13,2,2,5,0.00
2014-8-18,80.2,67.4,65.3,66.2,61.2,59.2,84,81,62,30.13,29.83,11,2,13,0.00
2014-8-19,84.4,72.2,64.2,65.1,60.8,57.0,86,69,45,29.83,29.75,14,4,15,0.00
2014-8-20,78.1,66.5,59.7,58.6,55.8,52.7,84,70,47,30.00,29.79,14,4,16,0.00
2014-8-21,77.4,65.3,56.8,58.5,55.7,53.2,93,73,50,30.03,29.96,10,3,12,0.00
2014-8-22,84.6,67.7,54.1,61.5,57.1,52.2,96,72,43,30.10,30.00,11,2,12,0.00
2014-8-23,89.6,71.2,56.8,60.6,56.7,51.4,90,63,34,30.16,29.99,10,2,14,0.00
2014-8-24,86.5,69.8,56.1,62.6,56.8,52.0,91,66,37,29.99,29.90,10,2,12,0.00
2014-8-25,83.8,69.6,56.8,62.1,57.3,52.7,88,67,41,30.04,29.96,6,2,8,0.00
2014-8-26,90.0,73.2,58.6,63.7,58.4,54.0,90,63,37,30.07,29.97,11,2,12,0.00
2014-8-27,88.0,73.6,60.6,65.3,60.7,57.7,91,67,42,30.04,29.97,12,3,16,0.00
2014-8-28,79.2,68.3,58.6,61.5,58.6,55.8,92,73,52,30.09,29.99,15,5,16,0.00
2014-8-29,71.4,64.1,57.6,59.4,55.2,49.6,89,74,52,29.99,29.94,12,3,18,0.00
2014-8-30,74.7,62.1,57.4,60.4,56.6,53.8,93,83,57,29.95,29.88,13,3,16,0.05
2014-8-31,72.9,62.2,55.8,56.8,53.6,50.0,93,75,46,30.07,29.95,12,3,16,0.08
2014-9-1,76.5,64.7,53.6,57.4,53.2,50.2,89,68,49,30.09,30.02,12,3,13,0.00
2014-9-2,68.0,68.0,68.0,52.2,52.2,52.2,57,57,57,30.02,30.02,6,6,7,0.00
2014-9-3,68.0,68.0,68.0,52.2,52.2,52.2,57,57,57,30.02,30.02,6,6,7,0.00
2014-9-4,68.0,68.0,68.0,52.2,52.2,52.2,57,57,57,30.02,30.02,6,6,7,0.00
2014-9-5,88.5,70.9,54.7,61.3,56.2,51.3,92,64,36,30.19,30.02,10,2,18,0.50
2014-9-6,94.5,75.9,62.2,62.2,54.5,48.6,75,50,29,30.07,29.86,13,3,17,0.00
2014-9-7,86.2,71.1,56.3,60.6,55.3,50.9,90,61,34,29.89,29.78,11,3,16,0.00
2014-9-8,65.7,61.0,57.9,55.9,53.9,51.8,85,78,65,29.95,29.80,12,4,15,0.00
2014-9-9,75.6,64.0,55.6,56.7,53.9,48.6,96,73,41,30.14,29.94,7,2,10,0.00
2014-9-10,70.5,62.7,53.4,55.0,36.9,25.9,86,44,20,30.31,30.14,26,6,34,0.00
2014-9-11,78.6,64.0,53.8,42.4,37.0,29.7,59,38,23,30.37,30.16,20,4,25,0.00
2014-9-12,86.4,66.2,49.3,52.0,42.1,35.8,64,44,22,30.17,29.98,11,2,16,0.00
2014-9-13,86.7,71.5,59.7,52.2,44.6,40.5,64,40,23,30.01,29.87,14,3,18,0.00
2014-9-14,89.4,71.9,56.8,55.8,48.6,43.0,65,46,25,29.94,29.86,14,2,17,0.00
2014-9-15,92.3,73.8,58.8,54.1,48.9,42.4,65,44,18,29.90,29.79,9,2,15,0.00
2014-9-16,80.2,67.6,55.6,55.6,50.7,45.3,77,56,35,29.88,29.83,13,3,14,0.00
2014-9-17,77.2,64.8,58.6,61.5,57.5,54.5,92,78,53,29.87,29.71,10,1,11,0.09
2014-9-18,65.3,60.9,58.8,61.3,58.9,57.2,96,93,85,29.95,29.72,11,3,14,0.35
2014-9-19,70.3,61.6,56.5,63.1,58.9,55.2,97,91,75,30.16,29.95,10,3,12,0.28
2014-9-20,81.3,66.5,55.2,61.5,57.6,54.1,98,76,49,30.16,29.91,13,3,16,0.01
2014-9-21,89.4,72.3,60.3,61.0,54.5,48.7,82,56,30,29.92,29.81,10,2,15,0.00
2014-9-22,71.1,63.1,59.2,60.8,58.0,55.9,93,84,68,30.00,29.90,10,3,12,0.02
2014-9-23,66.0,60.7,56.1,61.5,58.2,54.9,97,91,77,29.92,29.69,11,2,16,0.64
2014-9-24,68.0,60.8,57.6,60.1,57.9,55.4,97,90,71,29.88,29.67,15,3,21,0.68
2014-9-25,68.0,59.7,55.9,59.2,56.0,53.8,96,88,71,29.90,29.84,8,1,13,0.05
2014-9-26,59.4,57.0,55.2,58.3,55.7,53.8,98,95,88,30.13,29.89,8,0,9,0.53
2014-9-27,71.2,59.1,52.7,60.4,55.9,51.8,99,90,66,30.17,30.11,9,2,11,0.01
2014-9-28,77.2,60.9,52.0,61.0,55.5,51.1,99,84,53,30.12,29.90,9,2,11,0.01
2014-9-29,62.4,56.0,50.9,60.8,53.8,49.8,98,92,83,29.94,29.85,10,3,13,0.06
2014-9-30,67.5,58.5,54.7,52.9,50.3,47.3,86,75,52,30.14,29.94,11,4,18,0.01
2014-10-1,64.8,57.5,52.0,52.9,49.9,47.1,86,76,60,30.22,30.15,13,4,14,0.00
2014-10-2,70.2,56.3,45.9,50.9,47.0,44.1,95,74,42,30.34,30.20,7,2,10,0.00
2014-10-3,74.5,60.3,50.4,52.5,48.2,45.1,87,66,36,30.34,30.16,12,2,16,0.00
2014-10-4,67.8,61.0,55.4,59.5,55.8,50.7,93,83,70,30.23,30.16,9,1,9,0.04
2014-10-5,76.3,64.7,57.6,63.0,58.6,55.2,94,82,58,30.17,30.08,8,2,10,0.00
2014-10-6,78.3,65.0,57.4,63.9,59.3,55.2,96,83,58,30.09,29.99,9,2,12,0.00
2014-10-7,77.9,63.1,56.5,64.2,58.9,55.2,98,87,61,30.00,29.91,10,1,11,0.00
2014-10-8,72.3,60.0,53.8,62.6,56.7,52.5,98,89,67,30.05,29.95,7,1,9,0.00
2014-10-9,75.0,60.9,51.4,59.5,55.4,50.4,97,84,55,30.08,30.01,11,2,11,0.01
2014-10-10,67.5,58.0,50.9,57.9,54.5,49.6,98,89,67,30.05,29.98,20,4,20,0.12
2014-10-11,64.6,58.6,55.6,57.0,53.3,49.8,95,83,66,30.16,29.98,14,4,18,0.25
2014-10-12,62.1,56.6,52.5,54.5,51.9,49.5,96,84,74,30.25,30.07,10,3,12,0.02
2014-10-13,66.6,56.0,52.5,55.6,51.2,43.0,97,85,48,30.08,29.61,27,4,30,1.17
2014-10-14,63.3,53.3,49.3,55.6,50.1,47.8,97,89,73,29.85,29.57,15,1,16,0.34
2014-10-15,54.9,52.5,49.6,52.7,49.7,47.1,96,91,79,29.97,29.53,11,2,16,0.47
2014-10-16,65.7,55.4,50.2,54.9,50.5,48.2,96,84,65,30.04,29.86,19,2,22,0.03
2014-10-17,54.0,52.6,50.7,53.4,49.7,46.4,98,90,78,29.86,29.72,19,3,24,0.34
2014-10-18,65.3,60.2,53.2,59.4,56.6,52.5,98,88,79,29.94,29.83,15,4,17,0.01
2014-10-19,75.4,63.9,56.1,59.4,55.2,52.2,95,75,54,29.83,29.64,15,3,23,0.04
2014-10-20,61.3,57.4,52.5,57.4,55.0,50.5,97,92,78,29.77,29.66,18,5,19,0.93
2014-10-21,64.4,57.3,52.5,55.4,50.7,47.7,96,80,61,29.88,29.68,16,2,18,0.13
2014-10-22,60.3,54.1,50.4,54.3,50.9,47.5,97,89,65,29.70,29.50,14,2,17,0.50
2014-10-23,56.7,51.0,46.2,51.6,48.0,44.1,97,90,76,30.01,29.61,15,3,18,0.37
2014-10-24,56.3,50.2,44.8,49.1,45.6,43.0,96,85,74,30.10,29.84,17,3,28,0.02
2014-10-25,54.3,50.1,47.5,50.5,47.0,43.9,97,89,77,29.84,29.26,22,5,26,1.13
2014-10-26,53.8,48.2,42.6,47.8,45.4,41.2,96,90,77,30.14,29.62,17,3,23,0.20
2014-10-27,54.3,48.1,42.8,47.1,44.2,41.2,96,87,71,30.17,29.96,14,2,16,0.02
2014-10-28,55.6,49.3,46.0,53.2,47.3,43.3,98,93,81,29.96,29.81,19,3,20,0.60
2014-10-29,61.5,55.1,50.0,54.9,51.7,48.0,95,88,73,30.15,29.89,11,2,15,0.13
2014-10-30,55.2,52.1,50.7,53.6,49.1,45.9,97,90,78,30.07,29.71,19,5,30,0.76
2014-10-31,51.3,49.1,42.8,50.4,48.0,42.1,98,96,94,29.91,29.71,12,2,13,0.43
2014-11-1,44.8,43.4,39.4,44.2,42.9,38.7,99,98,97,29.93,29.88,7,0,8,0.01
2014-11-2,44.6,44.6,44.6,44.1,44.1,44.1,98,98,98,29.93,29.93,0,0,3,0.00
2014-11-3,44.6,44.6,44.6,44.1,44.1,44.1,98,98,98,29.93,29.93,0,0,3,0.00
2014-11-4,44.6,44.6,44.6,44.1,44.1,44.1,98,98,98,29.93,29.93,0,0,3,0.00
2014-11-5,44.6,44.6,44.6,44.1,44.1,44.1,98,98,98,29.93,29.93,0,0,3,0.00
2014-11-6,44.6,44.6,44.6,44.1,44.1,44.1,98,98,98,29.93,29.93,0,0,3,0.00
2014-11-7,44.6,44.6,44.6,44.1,44.1,44.1,98,98,98,29.93,29.93,0,0,3,0.00
2014-11-8,44.6,44.6,44.6,44.1,44.1,44.1,98,98,98,29.93,29.93,0,0,3,0.00
2014-11-9,44.6,44.6,44.6,44.1,44.1,44.1,98,98,98,29.93,29.93,0,0,3,0.00
2014-11-10,44.6,44.6,44.6,44.1,44.1,44.1,98,98,98,29.93,29.93,0,0,3,0.00
2014-11-11,44.6,44.6,44.6,44.1,44.1,44.1,98,98,98,29.93,29.93,0,0,3,0.00
2014-11-12,44.6,44.6,44.6,44.1,44.1,44.1,98,98,98,29.93,29.93,0,0,3,0.00
2014-11-13,44.6,44.6,44.6,44.1,44.1,44.1,98,98,98,29.93,29.93,0,0,3,0.00
2014-11-14,44.6,37.9,31.3,44.1,18.4,11.7,98,48,32,30.39,29.93,24,6,29,2.49
2014-11-15,44.2,35.4,30.6,21.0,15.2,11.8,59,44,32,30.59,30.38,24,6,30,0.00
2014-11-16,49.6,37.1,28.8,24.8,20.5,16.9,66,52,34,30.58,30.42,18,2,19,0.00
2014-11-17,49.6,39.1,31.5,27.7,23.9,19.8,72,55,38,30.44,30.23,15,1,17,0.00
2014-11-18,48.7,41.3,34.3,31.6,28.6,24.6,71,61,48,30.23,30.09,11,1,14,0.00
2014-11-19,53.4,45.5,39.6,36.7,32.4,29.1,70,60,50,30.10,29.82,21,2,21,0.00
2014-11-20,48.6,44.3,40.8,47.1,41.0,30.2,98,89,52,29.98,29.86,13,1,19,0.41
2014-11-21,49.5,46.1,42.6,47.1,44.7,41.9,98,95,84,29.89,29.29,14,3,19,0.74
2014-11-22,51.3,46.7,44.1,45.0,42.0,39.7,92,84,75,30.10,29.45,16,4,23,0.20
2014-11-23,53.2,47.8,43.5,45.3,41.5,39.0,92,79,63,30.35,29.97,21,5,23,0.28
2014-11-24,45.5,43.4,41.4,42.6,41.0,37.6,97,92,81,30.37,30.07,9,1,9,0.70
2014-11-25,44.1,42.1,38.7,43.5,41.3,37.8,98,97,95,30.25,30.11,15,2,22,1.22
2014-11-26,56.5,45.3,38.5,52.2,44.0,37.8,99,95,80,30.16,29.80,13,2,16,0.39
2014-11-27,57.4,54.3,52.2,52.9,51.2,49.1,95,89,77,29.82,29.55,19,5,24,0.65
2014-11-28,53.2,40.0,24.1,50.9,36.4,18.0,97,87,71,29.60,29.47,36,6,46,0.54
2014-11-29,25.9,21.3,17.6,19.2,6.3,1.6,83,53,37,30.31,29.60,36,11,51,0.00
2014-11-30,33.4,24.3,18.3,19.9,11.6,6.1,81,58,45,30.32,30.16,22,6,27,0.00
2014-12-1,36.1,27.7,21.9,22.1,18.4,14.2,82,68,54,30.29,30.15,16,2,17,0.00
2014-12-2,42.1,33.4,23.7,26.2,22.8,19.9,87,66,50,30.28,30.01,28,5,34,0.00
2014-12-3,45.7,38.2,34.5,24.1,22.1,19.6,63,52,40,30.01,29.79,25,6,29,0.00
2014-12-4,39.4,35.9,33.6,33.1,26.3,22.6,92,69,57,29.99,29.82,22,5,27,0.09
2014-12-5,46.6,39.1,34.7,42.1,36.1,32.5,95,89,81,30.01,29.79,20,5,25,0.02
2014-12-6,47.3,43.4,39.4,46.4,42.1,37.8,98,95,81,30.26,29.77,11,1,21,0.56
2014-12-7,50.7,46.4,41.5,44.1,42.1,39.7,98,85,71,30.28,30.00,19,4,22,0.02
2014-12-8,53.2,47.7,43.5,46.9,43.9,39.4,96,87,74,30.04,29.82,18,3,21,0.60
2014-12-9,63.1,54.6,46.6,55.0,49.7,43.2,96,84,60,29.86,29.64,23,5,36,0.72
2014-12-10,60.1,52.8,47.3,52.2,48.4,45.7,96,85,69,29.71,29.21,24,5,33,0.57
2014-12-11,53.2,47.3,45.0,47.1,43.6,41.5,95,87,68,29.58,29.18,37,7,37,0.80
2014-12-12,54.3,49.9,45.7,45.0,43.5,41.4,90,79,67,30.05,29.39,21,3,33,0.01
2014-12-13,51.3,44.3,40.3,47.1,42.1,37.6,97,92,79,30.27,30.05,21,1,25,0.07
2014-12-14,47.7,41.8,38.5,37.9,33.2,28.9,88,72,59,30.26,30.05,29,7,33,0.00
2014-12-15,46.0,42.3,38.7,31.3,29.9,27.7,67,61,55,30.07,29.86,33,8,33,0.00
2014-12-16,45.1,42.9,41.2,37.6,33.0,29.8,84,68,59,29.89,29.85,15,3,18,0.01
2014-12-17,47.1,43.2,40.6,39.7,36.8,34.7,94,78,64,29.94,29.83,12,2,18,0.06
2014-12-18,44.4,42.2,40.5,43.0,40.8,39.0,97,95,92,29.95,29.70,17,2,19,0.54
2014-12-19,48.9,45.3,41.4,45.3,42.5,39.7,98,90,77,29.94,29.74,15,3,16,0.94
2014-12-20,53.2,43.8,40.6,50.2,42.0,39.2,98,93,87,29.86,29.36,21,4,27,1.06
2014-12-21,53.2,50.1,48.4,49.5,44.5,42.4,87,81,71,30.08,29.45,16,5,25,0.00
2014-12-22,49.5,45.0,41.2,44.6,40.1,37.8,91,83,69,30.40,30.08,13,3,15,0.00
2014-12-23,44.8,42.6,40.6,41.2,39.6,37.4,97,89,80,30.35,30.02,14,3,15,0.67
2014-12-24,46.9,42.6,39.9,41.9,38.8,37.2,94,86,81,30.04,29.88,11,3,18,0.02
2014-12-25,41.7,39.3,36.1,39.9,37.4,34.5,97,93,89,30.31,30.04,8,1,9,0.19
2014-12-26,39.9,37.6,36.3,37.8,36.1,35.2,97,94,87,30.40,30.31,6,0,8,0.01
2014-12-27,43.9,38.8,36.3,42.3,37.7,35.2,98,96,89,30.32,29.99,10,2,13,0.41
2014-12-28,44.1,38.7,36.3,40.5,35.6,23.5,97,89,60,30.27,30.07,22,2,25,0.00
2014-12-29,37.9,33.4,25.3,24.1,15.6,7.3,61,48,39,30.89,30.27,41,9,43,0.00
2014-12-30,34.2,26.9,23.2,17.6,11.4,6.6,73,52,42,30.92,30.78,27,7,34,0.00
2014-12-31,38.5,29.1,22.6,23.5,19.8,16.2,80,68,53,30.78,30.46,10,2,14,0.00
2015-1-1,41.7,31.2,24.3,29.7,25.2,21.0,90,79,61,30.46,30.24,9,0,11,0.00
2015-1-2,38.1,34.3,31.5,37.2,31.7,27.1,97,90,77,30.25,30.09,20,2,23,0.30